Location: L�Ave Maria
(50.7161°N, 1.5911°E)
Time: 23:02:47
(UTC+00:00)

COSMOS 2455 - Pass Details

Date: 10 July 2020
Orbit: 898 x 911 km, 67.1° (Epoch: 14 August)

Event Time Altitude Azimuth Distance (km) Brightness Sun altitude
Rises 21:59:09 0° 323° (NW) 3,552 7.9 -12.5°
Reaches altitude 10° 22:01:43 10° 327° (NNW) 2,608 6.7 -12.7°
Maximum altitude 22:07:43 60° 48° (NE) 1,037 3.2 -13.2°
Enters shadow 22:12:48 15° 126° (SE) 2,285 4.4 -13.5°
